FW5813 Weather Reports


time (UTC)temp
F
wind
direction
speed
knots
gust
knots
rain 1hr
in
rain 24hr
in
rain mn
in
humidity
%
barometer
mb
20260506043339 57 230 2.6 5.2 0.00 0.00 0.00 84 1007.8
20260506042840 57 201 4.3 5.2 0.00 0.00 0.00 84 1007.7
20260506042340 56 214 1.7 5.2 0.00 0.00 0.00 85 1007.6
20260506041840 56 198 1.7 4.3 0.00 0.00 0.00 85 1007.7
20260506040344 55 193 1.7 3.5 0.00 0.00 0.00 85 1007.3
20260506035840 56 152 3.5 3.5 0.00 0.00 0.00 84 1007.1
20260506034840 56 195 0.9 1.7 0.00 0.00 0.00 83 1007.2
20260506034339 56 238 0.0 1.7 0.00 0.00 0.00 82 1007.2
20260506033839 56 223 0.9 2.6 0.00 0.00 0.00 82 1007.3
20260506033340 56 143 0.0 3.5 0.00 0.00 0.00 82 1007.4
20260506032840 56 254 0.0 3.5 0.00 0.00 0.00 82 1007.2
20260506032340 56 170 0.9 2.6 0.00 0.00 0.00 82 1007.3
20260506031339 57 173 0.0 1.7 0.00 0.00 0.00 80 1007.3
20260506030840 58 157 0.0 1.7 0.00 0.00 0.00 80 1007.3
20260506030340 58 197 0.9 1.7 0.00 0.00 0.00 80 1007.5
20260506024840 58 229 0.9 2.6 0.00 0.00 0.00 80 1007.1
20260506024340 58 220 0.0 1.7 0.00 0.00 0.00 80 1007.4
20260506023339 58 248 0.0 1.7 0.00 0.00 0.00 79 1007.1
20260506022840 58 262 0.0 1.7 0.00 0.00 0.00 79 1007.0
20260506022340 59 233 0.9 1.7 0.00 0.00 0.00 78 1007.3
20260506021840 59 35 0.0 1.7 0.00 0.00 0.00 77 1007.2
20260506020839 60 344 0.9 2.6 0.00 0.00 0.00 77 1007.4
20260506015840 60 216 1.7 2.6 0.00 0.00 0.00 75 1007.0
20260506015340 60 202 0.9 2.6 0.00 0.00 0.00 75 1007.2
20260506014839 60 186 0.0 1.7 0.00 0.00 0.00 74 1007.0
20260506014340 60 248 0.9 1.7 0.00 0.00 0.00 74 1007.0
20260506013840 61 89 0.0 2.6 0.00 0.00 0.00 73 1006.9
20260506013340 61 326 1.7 3.5 0.00 0.00 0.00 72 1007.0
20260506012340 61 229 0.0 3.5 0.00 0.00 0.00 71 1007.1
20260506011840 62 206 0.9 5.2 0.00 0.00 0.00 70 1007.1
20260506011340 62 212 0.9 5.2 0.00 0.00 0.00 69 1006.9
20260506010340 62 53 1.7 4.3 0.00 0.00 0.00 68 1007.0
20260506005839 62 44 0.0 4.3 0.00 0.00 0.00 68 1006.9
20260506005339 62 207 0.0 3.5 0.00 0.00 0.00 68 1006.8
20260506004840 62 180 0.0 3.5 0.00 0.00 0.00 67 1006.8
20260506002341 60 19 0.9 1.7 0.00 0.00 0.00 71 1006.2
20260506001840 60 355 0.0 1.7 0.00 0.00 0.00 70 1005.9
20260506001339 60 106 0.0 0.9 0.00 0.00 0.00 69 1006.0
20260506000840 60 93 0.9 0.9 0.00 0.00 0.00 69 1006.0
20260506000340 60 89 0.0 1.7 0.00 0.00 0.00 69 1006.0
20260505235840 60 89 0.0 1.7 0.00 0.00 0.00 68 1005.8
20260505235340 60 84 0.9 1.7 0.00 0.00 0.00 68 1005.8
20260505234840 60 103 0.0 2.6 0.00 0.00 0.00 67 1005.8
20260505234339 60 150 0.0 2.6 0.00 0.00 0.00 66 1005.8
20260505233841 61 165 1.7 3.5 0.00 0.00 0.00 65 1005.9
20260505233340 62 219 1.7 3.5 0.00 0.00 0.00 64 1005.9
20260505232340 62 219 0.0 2.6 0.00 0.00 0.00 64 1005.7
20260505231840 61 33 0.0 3.5 0.00 0.00 0.00 65 1005.8
20260505231353 61 223 0.9 3.5 0.00 0.00 0.00 65 1005.5
20260505230840 60 156 0.0 2.6 0.00 0.00 0.00 65 1005.3
20260505230340 60 263 0.9 3.5 0.00 0.00 0.00 65 1005.6
20260505225840 61 305 0.0 4.3 0.00 0.00 0.00 64 1005.3
20260505225340 61 228 1.7 4.3 0.00 0.00 0.00 64 1005.3
20260505224840 61 248 0.0 3.5 0.00 0.00 0.00 64 1005.0
20260505224340 61 230 1.7 5.2 0.00 0.00 0.00 64 1005.3
20260505223839 61 234 1.7 5.2 0.00 0.00 0.00 63 1005.1
20260505223340 61 207 1.7 5.2 0.00 0.00 0.00 63 1005.0
20260505222839 61 257 5.2 5.2 0.00 0.00 0.00 63 1004.9
20260505222340 61 196 1.7 4.3 0.00 0.00 0.00 63 1004.8
20260505221839 61 208 1.7 4.3 0.00 0.00 0.00 62 1004.8
20260505221340 61 198 1.7 3.5 0.00 0.00 0.00 62 1004.6
20260505220841 61 214 2.6 3.5 0.00 0.00 0.00 62 1004.5
20260505215340 62 207 0.9 4.3 0.00 0.00 0.00 61 1004.4
20260505214853 62 178 1.7 4.3 0.00 0.00 0.00 61 1004.4
20260505213840 62 213 1.7 5.2 0.00 0.00 0.00 60 1004.4
20260505213341 62 26 2.6 5.2 0.00 0.00 0.00 61 1004.3
20260505212840 62 230 4.3 7.0 0.00 0.00 0.00 60 1004.3
20260505211840 62 219 3.5 4.3 0.00 0.00 0.00 59 1004.3
20260505211339 62 237 1.7 7.0 0.00 0.00 0.00 59 1004.3
20260505210840 63 217 5.2 7.8 0.00 0.00 0.00 58 1004.1
20260505205339 63 198 4.3 6.1 0.00 0.00 0.00 58 1004.2
20260505204840 63 223 2.6 6.1 0.00 0.00 0.00 57 1003.8
20260505204339 64 166 0.9 8.7 0.00 0.00 0.00 56 1004.0
20260505203840 64 216 4.3 8.7 0.00 0.00 0.00 55 1003.9
20260505203340 64 216 3.5 5.2 0.00 0.00 0.00 55 1003.7
20260505202840 64 153 1.7 7.8 0.00 0.00 0.00 55 1003.4
20260505202339 64 171 4.3 7.8 0.00 0.00 0.00 55 1003.5
20260505201840 64 202 3.5 6.1 0.00 0.00 0.00 55 1003.5
20260505201340 64 147 1.7 6.1 0.00 0.00 0.00 55 1003.5
20260505200840 64 247 1.7 5.2 0.00 0.00 0.00 55 1003.3
20260505200339 65 199 5.2 8.7 0.00 0.00 0.00 54 1003.4
20260505195840 65 175 3.5 9.6 0.00 0.00 0.00 54 1003.3
20260505195340 65 193 3.5 9.6 0.00 0.00 0.00 53 1003.4
20260505194840 65 219 3.5 7.8 0.00 0.00 0.00 52 1003.4
20260505193840 66 238 3.5 13.9 0.00 0.00 0.00 51 1003.5
20260505193340 66 205 2.6 11.3 0.00 0.00 0.00 51 1003.2
20260505192840 66 221 3.5 11.3 0.00 0.00 0.00 51 1003.2
20260505191840 67 166 6.1 11.3 0.00 0.00 0.00 50 1003.2
20260505191340 67 193 5.2 13.9 0.00 0.00 0.00 50 1003.1
20260505190840 67 220 7.8 13.9 0.00 0.00 0.00 49 1003.1
20260505190340 67 191 5.2 10.4 0.00 0.00 0.00 49 1003.2
20260505185339 68 198 4.3 11.3 0.00 0.00 0.00 48 1003.2
20260505184840 68 177 6.1 12.2 0.00 0.00 0.00 48 1003.2
20260505184340 68 239 4.3 12.2 0.00 0.00 0.00 48 1002.9
20260505183839 68 191 7.0 10.4 0.00 0.00 0.00 48 1003.0
20260505183340 69 168 7.8 10.4 0.00 0.00 0.00 47 1003.3
20260505182840 69 190 7.0 9.6 0.00 0.00 0.00 47 1003.3
20260505181841 70 229 4.3 14.8 0.00 0.00 0.00 47 1003.2
20260505181340 70 205 3.5 10.4 0.00 0.00 0.00 46 1003.2
20260505180340 70 208 4.3 9.6 0.00 0.00 0.00 46 1003.1
20260505175840 71 202 5.2 9.6 0.00 0.00 0.00 46 1002.9
20260505175340 71 271 2.6 9.6 0.00 0.00 0.00 46 1002.9
20260505174340 72 194 4.3 12.2 0.00 0.00 0.00 45 1003.1
20260505173340 73 200 7.0 12.2 0.00 0.00 0.00 44 1002.8
20260505172841 73 151 2.6 11.3 0.00 0.00 0.00 43 1002.9
20260505172340 73 211 1.7 16.5 0.00 0.00 0.00 44 1003.0
20260505171840 73 223 5.2 16.5 0.00 0.00 0.00 43 1003.2
20260505171340 73 175 6.1 12.2 0.00 0.00 0.00 43 1003.1
20260505170853 74 226 4.3 9.6 0.00 0.00 0.00 43 1002.9
20260505170340 74 221 6.1 10.4 0.00 0.00 0.00 42 1003.1
20260505165840 74 215 5.2 13.0 0.00 0.00 0.00 42 1003.1
20260505165340 74 158 2.6 13.0 0.00 0.00 0.00 41 1003.1
20260505164337 75 231 4.3 13.9 0.00 0.00 0.00 41 1003.1
20260505163838 75 216 7.0 13.9 0.00 0.00 0.00 40 1003.2
20260505163338 76 194 3.5 9.6 0.00 0.00 0.00 40 1003.0
20260505162338 77 128 4.3 9.6 0.00 0.00 0.00 37 1002.8
20260505161838 78 169 7.0 9.6 0.00 0.00 0.00 37 1002.9
20260505161337 78 187 7.8 15.6 0.00 0.00 0.00 36 1003.1
20260505160837 78 212 8.7 15.6 0.00 0.00 0.00 35 1003.1
20260505160337 78 169 3.5 13.0 0.00 0.00 0.00 36 1003.1
20260505153338 79 197 12.2 16.5 0.00 0.00 0.00 35 1003.2
20260505152838 80 214 6.1 11.3 0.00 0.00 0.00 34 1003.1
20260505152338 80 197 7.0 11.3 0.00 0.00 0.00 33 1003.2
20260505151837 80 221 4.3 11.3 0.00 0.00 0.00 32 1003.2
20260505151337 80 161 7.0 11.3 0.00 0.00 0.00 32 1003.4
20260505150837 81 207 5.2 13.9 0.00 0.00 0.00 31 1003.6
20260505150337 81 180 2.6 13.9 0.00 0.00 0.00 31 1003.3
20260505140337 83 200 2.6 9.6 0.00 0.00 0.00 26 1004.0
20260505124837 82 145 3.5 7.8 0.00 0.00 0.00 31 1005.5
20260505124337 81 208 4.3 7.8 0.00 0.00 0.00 32 1005.4
20260505123837 81 214 2.6 9.6 0.00 0.00 0.00 34 1005.7
20260505123338 80 245 0.9 10.4 0.00 0.00 0.00 36 1006.0
20260505122837 80 214 3.5 12.2 0.00 0.00 0.00 36 1005.8
20260505121837 79 194 7.8 12.2 0.00 0.00 0.00 35 1006.3
20260505120837 80 160 0.9 10.4 0.00 0.00 0.00 35 1006.2
20260505120337 79 200 6.1 12.2 0.00 0.00 0.00 34 1006.0
20260505115837 79 158 7.8 12.2 0.00 0.00 0.00 36 1006.2
20260505115336 78 218 9.6 13.0 0.00 0.00 0.00 37 1006.3
20260505114838 78 206 5.2 13.0 0.00 0.00 0.00 36 1006.4
20260505114337 78 180 2.6 9.6 0.00 0.00 0.00 36 1006.5
20260505113847 78 160 6.1 9.6 0.00 0.00 0.00 38 1006.6
20260505113337 78 206 4.3 7.8 0.00 0.00 0.00 37 1006.8
20260505112837 78 202 3.5 11.3 0.00 0.00 0.00 39 1006.5
20260505112337 77 210 3.5 11.3 0.00 0.00 0.00 39 1006.8
20260505111837 77 213 4.3 12.2 0.00 0.00 0.00 39 1006.9
20260505111338 76 146 2.6 12.2 0.00 0.00 0.00 40 1007.0
20260505110838 76 217 2.6 8.7 0.00 0.00 0.00 39 1006.8
20260505110337 76 208 2.6 11.3 0.00 0.00 0.00 39 1006.8
20260505101838 74 171 1.7 13.0 0.00 0.00 0.00 44 1007.3
20260505100837 74 192 4.3 7.0 0.00 0.00 0.00 43 1007.7
20260505095838 73 145 3.5 7.8 0.00 0.00 0.00 45 1007.8
20260505094837 73 205 5.2 6.1 0.00 0.00 0.00 45 1007.8
20260505094337 73 238 2.6 11.3 0.00 0.00 0.00 45 1007.9
20260505093837 71 175 1.7 11.3 0.00 0.00 0.00 47 1007.9
20260505093340 72 166 5.2 6.1 0.00 0.00 0.00 47 1008.1
20260505092840 72 164 5.2 7.8 0.00 0.00 0.00 45 1008.1
20260505091839 71 168 1.7 6.1 0.00 0.00 0.00 48 1008.2
20260505091340 70 145 3.5 6.1 0.00 0.00 0.00 49 1008.0
20260505090340 70 156 2.6 7.0 0.00 0.00 0.00 50 1008.4
20260505085840 70 62 0.0 7.0 0.00 0.00 0.00 49 1008.0
20260505084838 70 146 3.5 6.1 0.00 0.00 0.00 50 1008.4
20260505084338 70 287 0.9 6.1 0.00 0.00 0.00 50 1008.4
20260505083837 70 111 2.6 5.2 0.00 0.00 0.00 51 1008.4
20260505083338 71 136 1.7 4.3 0.00 0.00 0.00 50 1008.5
20260505082837 70 348 1.7 3.5 0.00 0.00 0.00 51 1008.0
20260505082337 70 201 1.7 4.3 0.00 0.00 0.00 50 1008.4
20260505081836 70 158 0.0 5.2 0.00 0.00 0.00 51 1008.5
20260505081336 69 173 4.3 5.2 0.00 0.00 0.00 51 1008.4
20260505080826 68 193 0.0 5.2 0.00 0.00 0.00 53 1008.5
20260505080321 67 82 5.2 5.2 0.00 0.00 0.00 54 1008.8
20260505075821 68 233 0.9 4.3 0.00 0.00 0.00 52 1008.6
20260505075321 68 125 0.9 3.5 0.00 0.00 0.00 53 1008.6
20260505074821 69 46 3.5 3.5 0.00 0.00 0.00 51 1008.7
20260505074321 69 5 0.9 1.7 0.00 0.00 0.00 50 1008.5
20260505073821 68 8 0.9 2.6 0.00 0.00 0.00 52 1008.6
20260505073321 67 194 1.7 2.6 0.00 0.00 0.00 53 1008.8
20260505071821 64 155 0.0 1.7 0.00 0.00 0.00 57 1008.9
20260505071321 64 92 1.7 1.7 0.00 0.00 0.00 57 1008.9
20260505070822 64 311 0.0 1.7 0.00 0.00 0.00 57 1008.8
20260505065821 63 14 0.0 2.6 0.00 0.00 0.00 58 1008.6
20260505065321 63 198 1.7 2.6 0.00 0.00 0.00 58 1008.7
20260505064821 62 126 0.0 2.6 0.00 0.00 0.00 58 1008.7
20260505064321 62 135 0.0 2.6 0.00 0.00 0.00 59 1008.9
20260505063821 62 59 0.0 2.6 0.00 0.00 0.00 59 1008.9
20260505063321 61 133 1.7 3.5 0.00 0.00 0.00 60 1008.6
20260505062821 61 96 0.9 3.5 0.00 0.00 0.00 60 1008.7
20260505061820 62 124 1.7 2.6 0.00 0.00 0.00 58 1009.2
20260505061320 62 134 0.0 2.6 0.00 0.00 0.00 59 1008.7
20260505060821 62 103 0.0 2.6 0.00 0.00 0.00 58 1008.9
20260505060320 61 135 0.0 2.6 0.00 0.00 0.00 58 1008.7
20260505055823 61 202 0.9 2.6 0.00 0.00 0.00 57 1008.7
20260505055323 61 100 2.6 2.6 0.00 0.00 0.00 59 1008.8
20260505054320 58 8 1.7 1.7 0.00 0.00 0.00 65 1008.9
20260505053821 58 11 1.7 1.7 0.00 0.00 0.00 66 1008.7
20260505052821 57 346 0.0 1.7 0.00 0.00 0.00 68 1008.7
20260505052321 56 32 0.0 1.7 0.00 0.00 0.00 68 1008.8
20260505051822 55 47 0.0 1.7 0.00 0.00 0.00 70 1008.7
20260505051320 55 25 0.0 1.7 0.00 0.00 0.00 71 1008.7
20260505050821 54 129 0.0 1.7 0.00 0.00 0.00 72 1008.6
20260505050321 54 77 0.0 1.7 0.00 0.00 0.00 73 1008.7